Terug naar catalogus

CUBY-5

ActiefWetenschapSSO
NORAD 69907·PAYLOAD·🇪🇸 Spain

Gelanceerd Jul 7, 2026 vanaf Vandenberg Space Force Base

Loading…

Volgende Passages (komende 24 uur)

TLE

VersSource: Space-Track

Epoch: Sep 14, 2026, 12:49 UTC

1 69907U 26156AQ  26257.53427088  .00001562  00000-0  16348-3 0  9999
2 69907  97.7419 156.7149 0002082 254.3347 105.7641 14.91017796 10317

Volg CUBY-5 in realtime met AllMySat

Download on the App Store